When you browse on this site, cookies collect data to enhance your experience and personalize the content and advertising you see.
Visit our Privacy Policy to learn more. By continuing to use the site, you agree to this use of cookies and data.
  • In France
  • List of Countries
  • For 7 days
  • Water Temperature
  • Satellite Maps
  • Weather Map
  • Weather Widgets
  • user-avatar
    Login

    Hourly Weather Eisenstadt

    Today, 19 April, Friday

    Time Temperature Precipitation Wind Pressure Humidity
    00:00 +9°C° 0 mm 1 mps 732 mmHg 72%
    01:00 +9°C° 0 mm 1 mps 732 mmHg 72%
    02:00 +8°C° 0 mm 1 mps 732 mmHg 73%
    03:00 +8°C° 0 mm 1 mps 732 mmHg 74%
    04:00 +8°C° 0 mm 1 mps 732 mmHg 75%
    05:00 +9°C° 0 mm 1 mps 732 mmHg 72%
    06:00 +10°C° 0 mm 1 mps 733 mmHg 70%
    07:00 +12°C° 0 mm 1 mps 733 mmHg 67%
    08:00 +13°C° 0 mm 1 mps 733 mmHg 61%
    09:00 +15°C° 0 mm 1 mps 733 mmHg 55%
    10:00 +17°C° 0 mm 2 mps 733 mmHg 49%
    11:00 +18°C° 0 mm 2 mps 733 mmHg 46%
    12:00 +18°C° 0 mm 2 mps 733 mmHg 42%
    13:00 +19°C° 0 mm 2 mps 732 mmHg 39%
    14:00 +19°C° 0 mm 2 mps 732 mmHg 40%
    15:00 +19°C° 0 mm 2 mps 732 mmHg 41%
    16:00 +19°C° 0 mm 2 mps 731 mmHg 42%
    17:00 +17°C° 0 mm 2 mps 731 mmHg 49%
    18:00 +15°C° 0 mm 1 mps 731 mmHg 56%
    19:00 +13°C° 0 mm 1 mps 731 mmHg 63%
    20:00 +12°C° 0 mm 1 mps 731 mmHg 65%
    21:00 +12°C° 0 mm 2 mps 732 mmHg 67%
    22:00 +10°C° 0 mm 2 mps 732 mmHg 68%
    23:00 +10°C° 0 mm 2 mps 732 mmHg 69%

    Tomorrow, 20 April, Saturday

    Time Temperature Precipitation Wind Pressure Humidity
    00:00 +9°C° 0 mm 2 mps 732 mmHg 70%
    01:00 +8°C° 0 mm 2 mps 732 mmHg 70%
    02:00 +9°C° 0 mm 1 mps 732 mmHg 73%
    03:00 +8°C° 0 mm 1 mps 732 mmHg 76%
    04:00 +7°C° 0 mm 1 mps 732 mmHg 79%
    05:00 +9°C° 0 mm 1 mps 732 mmHg 74%
    06:00 +9°C° 0 mm 0 mps 732 mmHg 70%
    07:00 +10°C° 0 mm 0 mps 732 mmHg 65%
    08:00 +13°C° 0 mm 1 mps 732 mmHg 58%
    09:00 +14°C° 0 mm 1 mps 732 mmHg 50%
    10:00 +16°C° 0 mm 2 mps 732 mmHg 42%
    11:00 +17°C° 0 mm 2 mps 732 mmHg 40%
    12:00 +17°C° 0 mm 2 mps 731 mmHg 39%
    13:00 +18°C° 0 mm 2 mps 731 mmHg 37%
    14:00 +18°C° 0 mm 2 mps 731 mmHg 38%
    15:00 +18°C° 0 mm 2 mps 730 mmHg 38%
    16:00 +18°C° 0 mm 2 mps 730 mmHg 39%
    17:00 +16°C° 0 mm 2 mps 729 mmHg 46%
    18:00 +14°C° 0 mm 1 mps 729 mmHg 53%
    19:00 +12°C° 0 mm 1 mps 729 mmHg 61%
    20:00 +11°C° 0 mm 1 mps 729 mmHg 62%
    21:00 +10°C° 0 mm 1 mps 729 mmHg 64%
    22:00 +10°C° 0 mm 1 mps 729 mmHg 65%
    23:00 +9°C° 0 mm 1 mps 729 mmHg 66%

    Day after tomorrow, 21 April, Sunday

    Time Temperature Precipitation Wind Pressure Humidity
    00:00 +9°C° 0 mm 1 mps 728 mmHg 67%
    01:00 +9°C° 0 mm 1 mps 728 mmHg 68%
    02:00 +8°C° 0 mm 1 mps 728 mmHg 69%
    03:00 +8°C° 0 mm 1 mps 727 mmHg 70%
    04:00 +8°C° 0 mm 1 mps 727 mmHg 70%
    05:00 +9°C° 0 mm 1 mps 727 mmHg 67%
    06:00 +10°C° 0 mm 1 mps 727 mmHg 64%
    07:00 +11°C° 0 mm 0 mps 727 mmHg 61%
    08:00 +13°C° 0 mm 1 mps 727 mmHg 55%
    09:00 +15°C° 0 mm 1 mps 727 mmHg 49%
    10:00 +17°C° 0 mm 2 mps 727 mmHg 43%
    11:00 +18°C° 0 mm 2 mps 726 mmHg 41%
    12:00 +18°C° 0 mm 2 mps 726 mmHg 39%
    13:00 +19°C° 0 mm 2 mps 725 mmHg 38%
    14:00 +19°C° 0 mm 2 mps 725 mmHg 39%
    15:00 +18°C° 0 mm 2 mps 724 mmHg 40%
    16:00 +18°C° 0 mm 2 mps 724 mmHg 41%
    17:00 +16°C° 0 mm 2 mps 724 mmHg 48%
    18:00 +15°C° 0 mm 2 mps 723 mmHg 55%
    19:00 +13°C° 0 mm 1 mps 723 mmHg 61%
    20:00 +12°C° 0 mm 1 mps 723 mmHg 64%
    21:00 +11°C° 0 mm 1 mps 723 mmHg 67%
    22:00 +11°C° 0 mm 1 mps 724 mmHg 70%
    23:00 +10°C° 0 mm 1 mps 723 mmHg 71%

    22 April, Monday

    Time Temperature Precipitation Wind Pressure Humidity
    00:00 +9°C° 0 mm 2 mps 723 mmHg 71%
    01:00 +8°C° 0 mm 2 mps 723 mmHg 72%
    02:00 +8°C° 0 mm 2 mps 722 mmHg 73%
    03:00 +7°C° 0 mm 2 mps 722 mmHg 75%
    04:00 +7°C° 0 mm 2 mps 722 mmHg 77%
    05:00 +8°C° 0 mm 2 mps 721 mmHg 74%
    06:00 +8°C° 0 mm 2 mps 721 mmHg 71%
    07:00 +9°C° 0 mm 3 mps 721 mmHg 68%
    08:00 +11°C° 0 mm 4 mps 721 mmHg 61%
    09:00 +13°C° 0 mm 4 mps 721 mmHg 53%
    10:00 +15°C° 0 mm 5 mps 721 mmHg 46%
    11:00 +16°C° 0 mm 6 mps 720 mmHg 43%
    12:00 +17°C° 0 mm 6 mps 720 mmHg 41%
    13:00 +18°C° 0 mm 7 mps 720 mmHg 38%
    14:00 +18°C° 0 mm 7 mps 719 mmHg 40%
    15:00 +18°C° 0 mm 7 mps 719 mmHg 43%
    16:00 +18°C° 0 mm 7 mps 718 mmHg 46%
    17:00 +16°C° 0 mm 6 mps 718 mmHg 53%
    18:00 +15°C° 0 mm 5 mps 718 mmHg 60%
    19:00 +13°C° 0 mm 4 mps 717 mmHg 67%
    20:00 +13°C° 0 mm 4 mps 718 mmHg 70%
    21:00 +12°C° 0 mm 4 mps 718 mmHg 73%
    22:00 +12°C° 0 mm 4 mps 718 mmHg 75%
    23:00 +11°C° 0 mm 4 mps 718 mmHg 79%

    23 April, Tuesday

    Time Temperature Precipitation Wind Pressure Humidity
    00:00 +11°C° 0 mm 3 mps 717 mmHg 82%
    01:00 +11°C° 0 mm 3 mps 717 mmHg 86%
    02:00 +11°C° 0.2 mm 4 mps 717 mmHg 86%
    03:00 +11°C° 0.2 mm 4 mps 717 mmHg 87%
    04:00 +10°C° 0.2 mm 5 mps 717 mmHg 87%
    05:00 +9°C° 0.4 mm 5 mps 717 mmHg 89%
    06:00 +9°C° 0.4 mm 5 mps 717 mmHg 90%
    07:00 +9°C° 0.4 mm 5 mps 717 mmHg 92%
    08:00 +9°C° 0.2 mm 5 mps 717 mmHg 91%
    09:00 +9°C° 0.2 mm 5 mps 718 mmHg 91%
    10:00 +9°C° 0.2 mm 5 mps 718 mmHg 91%
    11:00 +11°C° 0.4 mm 4 mps 718 mmHg 90%
    12:00 +11°C° 0.4 mm 3 mps 717 mmHg 90%
    13:00 +13°C° 0.4 mm 2 mps 717 mmHg 90%
    14:00 +13°C° 0.8 mm 2 mps 717 mmHg 89%
    15:00 +13°C° 0.8 mm 2 mps 717 mmHg 89%
    16:00 +12°C° 0.8 mm 3 mps 717 mmHg 89%
    17:00 +12°C° 2.6 mm 3 mps 717 mmHg 89%
    18:00 +12°C° 2.6 mm 3 mps 717 mmHg 89%
    19:00 +12°C° 2.6 mm 3 mps 717 mmHg 89%
    20:00 +12°C° 0.5 mm 3 mps 718 mmHg 90%
    21:00 +12°C° 0.5 mm 4 mps 718 mmHg 90%
    22:00 +11°C° 0.5 mm 4 mps 718 mmHg 90%
    23:00 +11°C° 0.1 mm 4 mps 718 mmHg 92%

    24 April, Wednesday

    Time Temperature Precipitation Wind Pressure Humidity
    00:00 +11°C° 0.1 mm 3 mps 718 mmHg 94%
    01:00 +10°C° 0.1 mm 3 mps 718 mmHg 95%
    02:00 +10°C° 0 mm 3 mps 718 mmHg 96%
    03:00 +10°C° 0 mm 3 mps 719 mmHg 97%
    04:00 +10°C° 0 mm 2 mps 719 mmHg 97%
    05:00 +10°C° 0 mm 2 mps 719 mmHg 96%
    06:00 +11°C° 0 mm 3 mps 720 mmHg 96%
    07:00 +11°C° 0 mm 3 mps 720 mmHg 95%
    08:00 +13°C° 0 mm 2 mps 721 mmHg 92%
    09:00 +14°C° 0 mm 2 mps 721 mmHg 90%
    10:00 +15°C° 0 mm 2 mps 722 mmHg 87%
    11:00 +15°C° 0.1 mm 2 mps 722 mmHg 84%
    12:00 +16°C° 0.1 mm 2 mps 722 mmHg 81%
    13:00 +17°C° 0.1 mm 2 mps 722 mmHg 78%
    14:00 +17°C° 0.2 mm 2 mps 722 mmHg 77%
    15:00 +18°C° 0.2 mm 2 mps 722 mmHg 76%
    16:00 +18°C° 0.2 mm 2 mps 722 mmHg 76%
    17:00 +17°C° 0.1 mm 2 mps 722 mmHg 81%
    18:00 +16°C° 0.1 mm 2 mps 722 mmHg 87%
    19:00 +15°C° 0.1 mm 1 mps 722 mmHg 93%
    20:00 +14°C° 0 mm 1 mps 722 mmHg 94%
    21:00 +13°C° 0 mm 1 mps 723 mmHg 95%
    22:00 +13°C° 0 mm 1 mps 723 mmHg 97%
    23:00 +12°C° 0 mm 1 mps 723 mmHg 96%
    Show more